Regional Weather Roundup
Issued by NWS Cleveland, OH

Home | Current Version | Previous Version | Text Only | Print | Product List | Glossary Off
Versions: 1 2 3 4 5 6 7 8 9 10 11 12 13 14 15 16 17 18 19 20 21 22 23 24 25 26 27 28 29 30 31 32 33 34 35 36 37 38 39 40 41 42 43 44 45 46 47 48 49 50

000
ASUS41 KCLE 251500
RWRCLE
OHIO REGIONAL WEATHER ROUNDUP
NATIONAL WEATHER SERVICE WILMINGTON, OH
1100 AM EDT MON MAY 25 2015

NOTE: "FAIR" INDICATES FEW OR NO CLOUDS BELOW 12,000 FEET WITH NO
SIGNIFICANT WEATHER AND/OR OBSTRUCTIONS TO VISIBILITY.

OHZ001>008-015>018-024>027-034-035-043-044-251600-
   NORTHWEST OHIO

CITY           SKY/WX    TMP DP  RH WIND       PRES   REMARKS
DEFIANCE       PTSUNNY   77  63  61 SW22G31   30.01F
FINDLAY        PTSUNNY   79  60  52 S30G39    30.04F
TOLEDO EXPRESS CLOUDY    75  61  61 SW18G30   30.00F
TOLEDO EXEC    CLOUDY    78  59  51 SW21G38   30.02F
LIMA           CLOUDY    73  60  63 SW18G37   30.07R
$$

OHZ009>014-019>023-028>033-038-089-251600-
   NORTHEAST OHIO

CITY           SKY/WX    TMP DP  RH WIND       PRES   REMARKS
CLE-HOPKINS    CLOUDY    74  58  57 S17       30.11F
CLE-LAKEFRONT  MOSUNNY   76  58  53 S16       30.07F
CUY CO. ARPT   PTSUNNY   79  61  53 SW12G21   30.11F
LORAIN-ELYRIA  CLOUDY    76  58  53 SW16G26   30.08F
ASHTABULA      PTSUNNY   75  58  55 SW12      30.12F
AKRON-CANTON   CLOUDY    76  56  49 SW16G23   30.15F
WOOSTER        NOT AVBL
MANSFIELD      CLOUDY    73  58  59 S18G26    30.12F
YOUNGSTOWN     PTSUNNY   78  58  49 SW17G23   30.15F
$$

OHZ042-051>053-060>062-070>072-077>081-251600-
  SOUTHWEST OHIO

CITY           SKY/WX    TMP DP  RH WIND       PRES   REMARKS
CINC-COVINGTON LGT RAIN  66  63  90 S12       30.15F
CINC-LUNKEN    CLOUDY    68  65  90 S9        30.15F
HAMILTON       LGT RAIN  68  65  90 VRB3      30.14F
DAYTON         NOT AVBL
WRIGHT-PAT AFB NOT AVBL
DAYTON GENERAL LGT RAIN  66  64  93 S14       30.14S
WILMINGTON     CLOUDY    76  59  55 SW22G29   30.14S
$$

OHZ036-037-039>041-045>050-054>059-063>069-073>076-082>088-251600-
  CENTRAL AND SOUTHEAST OHIO

CITY           SKY/WX    TMP DP  RH WIND       PRES   REMARKS
COLUMBUS       PTSUNNY   76  57  51 SW17G28   30.14F
OSU AIRPORT    PTSUNNY   78  59  51 SW22G35   30.13S
BOLTON FIELD   PTSUNNY   77  61  57 SW29G37   30.15S
RICKENBACK AFB NOT AVBL
NEWARK         PTSUNNY   77  58  51 SW18G25   30.15S
MARION         PTSUNNY   77  58  51 SW22G31   30.10F
LANCASTER      MOSUNNY   77  56  48 SW10G21   30.17S
ZANESVILLE     CLOUDY    73  56  54 S12       30.17F
NEW PHILLY     CLOUDY    75  57  53 VRB3      30.17F
$$



USA.gov is the U.S. government's official web portal to all federal, state and local government web resources and services.